Location: Aldenham
(51.6667°N, 0.3500°W)
Time: 06:06:30
(UTC+00:00)

Cosmos 1092 Rocket - Pass Details

Date: 18 November 2025
Orbit: 953 x 994 km, 82.9° (Epoch: 12 December)

Event Time Altitude Azimuth Distance (km) Brightness Sun altitude
Rises 18:06:46 0° 352° (N) 3,698 7.0 -18.2°
Reaches altitude 10° 18:09:26 10° 358° (N) 2,740 6.3 -18.6°
Maximum altitude 18:15:29 48° 72° (ENE) 1,251 4.1 -19.5°
Drops below altitude 10° 18:21:25 10° 146° (SSE) 2,695 6.0 -20.4°
Sets 18:24:00 0° 152° (SSE) 3,632 6.8 -20.8°
